XJS H (45612 NORAD) Tracking and Keplerian Element Data

This shows tracking and keplerian element data for the satellite.

Feedback or suggestion? Click here.




ElementValue
Catalog45612
NameXJS H
Epoch Orbit542
Epoch Day186.46822455
Epoch Year2020
RAAN301.8895
Inclination35.0332
Eccentricity0.0014755
Argument of Perigee273.9651
Mean Anonmoly168.3612
Mean Motion15.29872518
Decay Rate8.75E-06
L11 45612U 20032B 20186.46822455 .00000875 00000-0 30791-4 0 9992
L22 45612 35.0332 301.8895 0014755 273.9651 168.3612 15.29872518 5421

Live tracking and technical data element details for XJS H (NORAD 45612). XJS H can be tracked NOW for your location showing map with azimuth and elevation plus other details from your city location.

Track the satellite on the map from your city or location and see movement details for azimuth, elevation, latitude, longitude, range, height, and movement on the map or in text.







IsCatalogInMostPopularTable: catalog: 45612, numindb: 6
Update: records affected: 1



GetName: 45612 XJS H

Hit Count: updated at: Sun, 05 Jul 2020 16:47:39 GMT